NOAA 16 DEB

Satellite information

Favourite Embed

Satellite Type and Status

DEBRISDECAYED

Key statistics

Satellite NOAA 16 DEB at a glance.

Uptime

8982

Days in orbit

Revolutions

≈ 15.3

Per day

Orbit

SSO

Sun Synchronous Orbit

Inclination

98.8

Latest

Satellite identification and parameters

Extended collection of information and parameters for NOAA 16 DEB.

Object identification

Identified? True

Debris? True

Object name: NOAA 16 DEB

International designator: 2000-055GA

Object number (NORAD): 41274

Object ID (CCSDS): 41274

Country: UNITED STATES OF AMERICA (US)

Current information (Y/N): Y

RCS size: SMALL

Orbital parameters

Decay date: April 25, 2025

Period: 94.09 minutes

Inclination: 98.8034 deg

SMA: 6852.6 km

Apoapsis: 485.739 km

Periapsis: 463.19 km

RAAN: 291.3962 deg

Eccentricy: 0.0016453

Argument of periapsis: 252.1437 deg

Mean anomaly: 107.8005 deg

Mean motion: 15.30451996 rev/day

Mean motion (dot): 0.00552457 rev/day2

B* drag term: 0.017397 1/REarth

Two-line elements (TLE)

Creation date: April 15, 2025, 6:47 p.m.

Reference frame: TEME

Reference center: EARTH

Epoch: April 15, 2025, 12:43 a.m. UTC

TLE line 0: 0 NOAA 16 DEB

TLE line 1: 1 41274U 00055GA 25105.03034145 .00552457 00000-0 17397-1 0 9997

TLE line 2: 2 41274 98.8034 291.3962 0016453 252.1437 107.8005 15.30451996487549

Live tracking on map

Satellite NOAA 16 DEB has decayed and is no longer in orbit. No tracking available.

In-orbit conjunctions

Satellite NOAA 16 DEB has decayed and is no longer in orbit. No conjunctions available.

Associated space launch

The NOAA K, L and M POES satellites begin the fifth generation of improved environmental monitoring in support of NOAA missions. The instrument payload has significant improvements and additions/deletions. The instrument changes have effected the spacecraft subsystems and data formats.

NOAA 16 DEB was lifted into orbit during the mission ‘Titan II SLV | NOAA 16’, on board a Titan II SLV space rocket.

The launch took place on Sept. 21, 2000, 10:22 a.m. from Space Launch Complex 4W.

For more information about the launch, click the button.

Launch to space Titan II SLV | NOAA 16
Titan II SLV | NOAA 16

Agency: N/A

Status: Launch Successful

Launch date: Sept. 21, 2000, 10:22 a.m. UTC

Rocket: Titan II SLV

Launch pad: Space Launch Complex 4W

Location: Vandenberg SFB, CA, USA

...

Latest news about this satellite

There are no fresh news available about this satellite. Check back as we update our databases every day.


Newsletter sign-up

Weekly statistics, charts and insights to help you stay on top of the space industry.